| time (UTC) | temp F | wind direction | speed MPH | gust MPH | rain 1hr in | rain 24hr in | rain mn in | humidity % | barometer mb |
| 20260507040143 | 65 | 39 | 5.0 | 11.0 | 0.00 | 0.01 | 0.01 | 79 | 1013.7 |
| 20260507035643 | 65 | 32 | 5.0 | 11.0 | 0.00 | 0.01 | 0.01 | 79 | 1013.6 |
| 20260507035143 | 65 | 339 | 4.0 | 10.0 | 0.00 | 0.01 | 0.01 | 79 | 1013.6 |
| 20260507034642 | 65 | 325 | 4.0 | 10.0 | 0.00 | 0.01 | 0.01 | 79 | 1013.4 |
| 20260507034143 | 65 | 55 | 5.0 | 12.0 | 0.00 | 0.01 | 0.01 | 79 | 1013.1 |
| 20260507033644 | 65 | 38 | 5.0 | 13.0 | 0.00 | 0.01 | 0.01 | 79 | 1013.2 |
| 20260507033143 | 65 | 59 | 5.0 | 13.0 | 0.00 | 0.01 | 0.01 | 79 | 1013.2 |
| 20260507032643 | 65 | 18 | 6.0 | 13.0 | 0.00 | 0.01 | 0.01 | 79 | 1013.3 |
| 20260507032144 | 65 | 21 | 7.0 | 16.0 | 0.00 | 0.01 | 0.01 | 78 | 1013.3 |
| 20260507031645 | 66 | 316 | 6.0 | 12.0 | 0.00 | 0.01 | 0.01 | 78 | 1013.1 |
| 20260507031641 | 66 | 29 | 7.0 | 16.0 | 0.00 | 0.01 | 0.01 | 78 | 1013.1 |
| 20260507030641 | 66 | 36 | 5.0 | 19.0 | 0.00 | 0.01 | 0.01 | 78 | 1013.2 |
| 20260507030145 | 66 | 20 | 5.0 | 14.0 | 0.00 | 0.01 | 0.01 | 78 | 1013.1 |
| 20260507030141 | 66 | 349 | 6.0 | 19.0 | 0.00 | 0.01 | 0.01 | 78 | 1013.3 |
| 20260507025145 | 66 | 320 | 5.0 | 12.0 | 0.00 | 0.01 | 0.01 | 78 | 1013.0 |
| 20260507025141 | 66 | 16 | 5.0 | 12.0 | 0.00 | 0.01 | 0.01 | 78 | 1013.2 |
| 20260507024141 | 66 | 26 | 5.0 | 10.0 | 0.00 | 0.01 | 0.01 | 78 | 1013.0 |
| 20260507023638 | 66 | 32 | 4.0 | 10.0 | 0.00 | 0.01 | 0.01 | 78 | 1013.0 |
| 20260507023137 | 67 | 42 | 4.0 | 12.0 | 0.00 | 0.01 | 0.01 | 77 | 1013.0 |
| 20260507022638 | 67 | 326 | 6.0 | 12.0 | 0.00 | 0.01 | 0.01 | 77 | 1013.0 |
| 20260507022634 | 67 | 350 | 6.0 | 13.0 | 0.00 | 0.01 | 0.01 | 77 | 1012.8 |
| 20260507021633 | 67 | 19 | 6.0 | 13.0 | 0.00 | 0.01 | 0.01 | 77 | 1012.8 |
| 20260507021136 | 67 | 314 | 5.0 | 12.0 | 0.00 | 0.01 | 0.01 | 77 | 1012.8 |
| 20260507021132 | 67 | 347 | 7.0 | 15.0 | 0.00 | 0.01 | 0.01 | 76 | 1012.7 |
| 20260507020734 | 67 | 355 | 6.0 | 15.0 | 0.00 | 0.01 | 0.01 | 77 | 1012.7 |
| 20260507015627 | 67 | 80 | 6.0 | 14.0 | 0.00 | 0.01 | 0.01 | 76 | 1012.5 |
| 20260507015130 | 68 | 29 | 6.0 | 14.0 | 0.00 | 0.01 | 0.01 | 76 | 1012.4 |
| 20260507015126 | 68 | 21 | 6.0 | 13.0 | 0.00 | 0.01 | 0.01 | 76 | 1012.4 |
| 20260507014129 | 68 | 15 | 6.0 | 14.0 | 0.00 | 0.01 | 0.01 | 75 | 1012.2 |
| 20260507014125 | 68 | 333 | 7.0 | 15.0 | 0.00 | 0.01 | 0.01 | 75 | 1012.1 |
| 20260507013128 | 69 | 355 | 7.0 | 14.0 | 0.00 | 0.01 | 0.01 | 75 | 1011.5 |
| 20260507013124 | 69 | 15 | 8.0 | 15.0 | 0.00 | 0.01 | 0.01 | 75 | 1011.5 |
| 20260507012121 | 69 | 344 | 7.0 | 14.0 | 0.00 | 0.01 | 0.01 | 74 | 1011.8 |
| 20260507011622 | 69 | 10 | 5.0 | 10.0 | 0.00 | 0.01 | 0.01 | 74 | 1011.7 |
| 20260507011124 | 70 | 46 | 5.0 | 10.0 | 0.00 | 0.01 | 0.01 | 74 | 1011.5 |
| 20260507011120 | 70 | 32 | 6.0 | 11.0 | 0.00 | 0.01 | 0.01 | 74 | 1011.7 |
| 20260507010119 | 70 | 24 | 6.0 | 16.0 | 0.00 | 0.01 | 0.01 | 73 | 1011.6 |
| 20260507005619 | 71 | 341 | 6.0 | 16.0 | 0.00 | 0.01 | 0.01 | 72 | 1011.7 |
| 20260507005120 | 71 | 318 | 6.0 | 12.0 | 0.00 | 0.01 | 0.01 | 72 | 1011.5 |
| 20260507004623 | 72 | 28 | 6.0 | 16.0 | 0.00 | 0.01 | 0.01 | 71 | 1011.1 |
| 20260507004619 | 71 | 34 | 6.0 | 13.0 | 0.00 | 0.01 | 0.01 | 72 | 1011.2 |
| 20260507003619 | 72 | 17 | 6.0 | 16.0 | 0.00 | 0.01 | 0.01 | 71 | 1011.2 |
| 20260507003120 | 73 | 327 | 6.0 | 15.0 | 0.00 | 0.01 | 0.01 | 71 | 1011.1 |
| 20260507002619 | 73 | 338 | 6.0 | 14.0 | 0.00 | 0.01 | 0.01 | 70 | 1011.1 |
| 20260507002119 | 74 | 18 | 6.0 | 14.0 | 0.00 | 0.01 | 0.01 | 70 | 1010.9 |
| 20260507001620 | 74 | 23 | 7.0 | 14.0 | 0.00 | 0.01 | 0.01 | 70 | 1011.0 |
| 20260507001119 | 74 | 350 | 7.0 | 15.0 | 0.00 | 0.01 | 0.01 | 70 | 1011.0 |
| 20260507000624 | 75 | 343 | 7.0 | 16.0 | 0.00 | 0.01 | 0.01 | 69 | 1010.8 |
| 20260507000620 | 74 | 11 | 7.0 | 15.0 | 0.00 | 0.01 | 0.01 | 69 | 1011.1 |
| 20260507000223 | 75 | 286 | 7.0 | 16.0 | 0.00 | 0.01 | 0.01 | 68 | 1010.8 |
| 20260506235724 | 76 | 340 | 7.0 | 13.0 | 0.00 | 0.01 | 0.01 | 68 | 1010.6 |
| 20260506234620 | 76 | 303 | 7.0 | 20.0 | 0.00 | 0.01 | 0.01 | 68 | 1010.4 |
| 20260506234119 | 76 | 334 | 7.0 | 20.0 | 0.00 | 0.01 | 0.01 | 67 | 1010.3 |
| 20260506233619 | 77 | 336 | 7.0 | 15.0 | 0.00 | 0.01 | 0.01 | 66 | 1010.4 |
| 20260506233124 | 78 | 355 | 8.0 | 15.0 | 0.00 | 0.01 | 0.01 | 64 | 1010.2 |
| 20260506233120 | 77 | 345 | 8.0 | 15.0 | 0.00 | 0.01 | 0.01 | 66 | 1010.4 |
| 20260506232119 | 79 | 323 | 8.0 | 15.0 | 0.00 | 0.01 | 0.01 | 63 | 1010.1 |
| 20260506231620 | 80 | 30 | 7.0 | 15.0 | 0.00 | 0.01 | 0.01 | 65 | 1009.9 |
| 20260506231119 | 81 | 24 | 7.0 | 14.0 | 0.00 | 0.01 | 0.01 | 66 | 1009.8 |
| 20260506230619 | 82 | 45 | 7.0 | 13.0 | 0.00 | 0.01 | 0.01 | 66 | 1009.8 |
| 20260506230120 | 82 | 51 | 8.0 | 14.0 | 0.00 | 0.01 | 0.01 | 66 | 1009.7 |
| 20260506225620 | 82 | 47 | 7.0 | 15.0 | 0.00 | 0.01 | 0.01 | 66 | 1009.6 |
| 20260506225119 | 82 | 55 | 6.0 | 15.0 | 0.00 | 0.01 | 0.01 | 66 | 1009.6 |
| 20260506224620 | 82 | 34 | 5.0 | 16.0 | 0.00 | 0.01 | 0.01 | 67 | 1009.6 |
| 20260506224119 | 82 | 78 | 6.0 | 16.0 | 0.00 | 0.01 | 0.01 | 67 | 1009.7 |
| 20260506223620 | 82 | 32 | 7.0 | 14.0 | 0.00 | 0.01 | 0.01 | 67 | 1009.6 |
| 20260506223119 | 83 | 13 | 6.0 | 14.0 | 0.00 | 0.01 | 0.01 | 66 | 1009.4 |
| 20260506222624 | 83 | 313 | 6.0 | 14.0 | 0.00 | 0.01 | 0.01 | 66 | 1009.4 |
| 20260506222620 | 83 | 72 | 6.0 | 13.0 | 0.00 | 0.01 | 0.01 | 66 | 1009.4 |
| 20260506221619 | 83 | 13 | 7.0 | 14.0 | 0.00 | 0.01 | 0.01 | 66 | 1009.5 |
| 20260506221118 | 83 | 18 | 8.0 | 14.0 | 0.00 | 0.01 | 0.01 | 66 | 1009.3 |
| 20260506220617 | 83 | 40 | 7.0 | 14.0 | 0.00 | 0.01 | 0.01 | 66 | 1009.4 |
| 20260506220118 | 84 | 33 | 6.0 | 15.0 | 0.00 | 0.01 | 0.01 | 65 | 1009.3 |
| 20260506215618 | 84 | 11 | 7.0 | 15.0 | 0.00 | 0.01 | 0.01 | 64 | 1009.2 |
| 20260506215117 | 85 | 350 | 6.0 | 16.0 | 0.00 | 0.01 | 0.01 | 62 | 1009.1 |
| 20260506214618 | 88 | 333 | 3.0 | 16.0 | 0.00 | 0.01 | 0.01 | 58 | 1009.1 |
| 20260506214115 | 89 | 78 | 1.0 | 6.0 | 0.00 | 0.01 | 0.01 | 58 | 1009.0 |
| 20260506213618 | 89 | 313 | 2.0 | 6.0 | 0.00 | 0.01 | 0.01 | 59 | 1009.0 |
| 20260506213614 | 89 | 11 | 2.0 | 6.0 | 0.00 | 0.01 | 0.01 | 58 | 1009.1 |
| 20260506212613 | 89 | 119 | 2.0 | 6.0 | 0.00 | 0.01 | 0.01 | 58 | 1009.2 |
| 20260506212114 | 89 | 167 | 2.0 | 6.0 | 0.00 | 0.01 | 0.01 | 58 | 1009.2 |
| 20260506211612 | 89 | 165 | 1.0 | 5.0 | 0.00 | 0.01 | 0.01 | 58 | 1009.1 |
| 20260506211112 | 89 | 32 | 1.0 | 5.0 | 0.00 | 0.01 | 0.01 | 57 | 1009.3 |
| 20260506210615 | 89 | 55 | 1.0 | 4.0 | 0.00 | 0.01 | 0.01 | 58 | 1009.3 |
| 20260506210611 | 89 | 40 | 1.0 | 4.0 | 0.00 | 0.01 | 0.01 | 56 | 1009.4 |
| 20260506205803 | 89 | 101 | 2.0 | 7.0 | 0.00 | 0.01 | 0.01 | 58 | 1009.4 |
| 20260506205610 | 90 | 52 | 2.0 | 7.0 | 0.00 | 0.01 | 0.01 | 58 | 1009.4 |
| 20260506205406 | 91 | 121 | 2.0 | 7.0 | 0.00 | 0.01 | 0.01 | 57 | 1009.5 |
| 20260506205257 | 89 | 55 | 1.0 | 6.0 | 0.00 | 0.01 | 0.01 | 59 | 1009.5 |
| 20260506205253 | 90 | 57 | 1.0 | 6.0 | 0.00 | 0.01 | 0.01 | 57 | 1009.6 |
| 20260506203605 | 91 | 121 | 2.0 | 7.0 | 0.00 | 0.01 | 0.01 | 57 | 1009.5 |
| 20260506203106 | 91 | 102 | 2.0 | 7.0 | 0.00 | 0.01 | 0.01 | 58 | 1009.6 |
| 20260506202604 | 91 | 143 | 1.0 | 5.0 | 0.00 | 0.01 | 0.01 | 57 | 1009.6 |
| 20260506202103 | 91 | 138 | 1.0 | 5.0 | 0.00 | 0.01 | 0.01 | 57 | 1009.6 |
| 20260506201604 | 90 | 142 | 1.0 | 5.0 | 0.00 | 0.01 | 0.01 | 60 | 1009.7 |
| 20260506201103 | 89 | 129 | 1.0 | 4.0 | 0.00 | 0.01 | 0.01 | 62 | 1009.8 |
| 20260506200602 | 87 | 142 | 1.0 | 4.0 | 0.00 | 0.01 | 0.01 | 64 | 1009.9 |
| 20260506195604 | 87 | 74 | 2.0 | 6.0 | 0.00 | 0.01 | 0.01 | 63 | 1010.1 |
| 20260506195600 | 87 | 74 | 1.0 | 5.0 | 0.00 | 0.01 | 0.01 | 62 | 1010.0 |
| 20260506194558 | 88 | 9 | 2.0 | 6.0 | 0.00 | 0.01 | 0.01 | 63 | 1010.2 |
| 20260506194102 | 88 | 214 | 1.0 | 4.0 | 0.00 | 0.01 | 0.01 | 63 | 1010.1 |
| 20260506194058 | 88 | 119 | 1.0 | 6.0 | 0.00 | 0.01 | 0.01 | 63 | 1010.1 |
| 20260506193058 | 87 | 169 | 1.0 | 5.0 | 0.00 | 0.01 | 0.01 | 66 | 1010.1 |
| 20260506192555 | 87 | 163 | 2.0 | 5.0 | 0.00 | 0.01 | 0.01 | 64 | 1010.2 |
| 20260506192054 | 87 | 105 | 2.0 | 8.0 | 0.00 | 0.01 | 0.01 | 64 | 1010.3 |
| 20260506191554 | 87 | 92 | 2.0 | 8.0 | 0.00 | 0.01 | 0.01 | 65 | 1010.3 |
| 20260506191057 | 87 | 103 | 2.0 | 7.0 | 0.00 | 0.01 | 0.01 | 66 | 1010.3 |
| 20260506191053 | 87 | 140 | 2.0 | 7.0 | 0.00 | 0.01 | 0.01 | 67 | 1010.3 |
| 20260506190054 | 86 | 126 | 1.0 | 5.0 | 0.00 | 0.01 | 0.01 | 67 | 1010.4 |
| 20260506185554 | 85 | 104 | 1.0 | 5.0 | 0.00 | 0.01 | 0.01 | 68 | 1010.5 |
| 20260506185052 | 85 | 78 | 2.0 | 6.0 | 0.00 | 0.01 | 0.01 | 68 | 1010.5 |
| 20260506184552 | 85 | 69 | 1.0 | 7.0 | 0.00 | 0.01 | 0.01 | 68 | 1010.6 |
| 20260506184052 | 85 | 166 | 2.0 | 7.0 | 0.00 | 0.01 | 0.01 | 70 | 1010.6 |
| 20260506183552 | 85 | 128 | 2.0 | 7.0 | 0.00 | 0.01 | 0.01 | 72 | 1010.7 |
| 20260506183052 | 84 | 88 | 1.0 | 7.0 | 0.00 | 0.01 | 0.01 | 71 | 1010.8 |
| 20260506182550 | 84 | 128 | 1.0 | 6.0 | 0.00 | 0.01 | 0.01 | 72 | 1010.9 |
| 20260506182050 | 83 | 111 | 2.0 | 8.0 | 0.00 | 0.01 | 0.01 | 73 | 1011.0 |
| 20260506181553 | 82 | 107 | 2.0 | 4.0 | 0.00 | 0.01 | 0.01 | 74 | 1011.1 |
| 20260506181549 | 83 | 39 | 1.0 | 8.0 | 0.00 | 0.01 | 0.01 | 73 | 1011.0 |
| 20260506181154 | 82 | 349 | 2.0 | 8.0 | 0.00 | 0.01 | 0.01 | 74 | 1011.1 |
| 20260506180052 | 81 | 68 | 2.0 | 6.0 | 0.00 | 0.01 | 0.01 | 77 | 1011.1 |
| 20260506180048 | 81 | 82 | 2.0 | 8.0 | 0.00 | 0.01 | 0.01 | 75 | 1011.2 |
| 20260506175652 | 81 | 76 | 1.0 | 5.0 | 0.00 | 0.01 | 0.01 | 76 | 1011.2 |
| 20260506174549 | 80 | 22 | 1.0 | 6.0 | 0.00 | 0.01 | 0.01 | 76 | 1011.2 |
| 20260506174545 | 80 | 355 | 1.0 | 6.0 | 0.00 | 0.01 | 0.01 | 77 | 1011.3 |
| 20260506173548 | 79 | 34 | 0.0 | 5.0 | 0.00 | 0.01 | 0.01 | 80 | 1011.3 |
| 20260506173544 | 80 | 45 | 1.0 | 5.0 | 0.00 | 0.01 | 0.01 | 78 | 1011.3 |
| 20260506172544 | 79 | 36 | 0.0 | 2.0 | 0.00 | 0.01 | 0.01 | 80 | 1011.3 |
| 20260506172044 | 79 | 36 | 0.0 | 0.0 | 0.00 | 0.01 | 0.01 | 80 | 1011.3 |
| 20260506171543 | 79 | 36 | 0.0 | 0.0 | 0.00 | 0.01 | 0.01 | 80 | 1011.3 |
| 20260506171042 | 78 | 36 | 0.0 | 0.0 | 0.00 | 0.01 | 0.01 | 81 | 1011.3 |
| 20260506170541 | 78 | 36 | 0.0 | 4.0 | 0.00 | 0.01 | 0.01 | 83 | 1011.3 |
| 20260506170040 | 78 | 36 | 1.0 | 4.0 | 0.00 | 0.01 | 0.01 | 82 | 1011.3 |
| 20260506165540 | 77 | 36 | 1.0 | 4.0 | 0.00 | 0.01 | 0.01 | 83 | 1011.4 |
| 20260506165043 | 77 | 37 | 1.0 | 4.0 | 0.00 | 0.01 | 0.01 | 84 | 1011.4 |
| 20260506165038 | 77 | 37 | 0.0 | 2.0 | 0.01 | 0.01 | 0.01 | 84 | 1011.4 |
| 20260506164037 | 77 | 36 | 0.0 | 2.0 | 0.01 | 0.01 | 0.01 | 85 | 1011.3 |
| 20260506163538 | 76 | 36 | 1.0 | 2.0 | 0.01 | 0.01 | 0.01 | 86 | 1011.3 |
| 20260506163036 | 76 | 36 | 1.0 | 4.0 | 0.01 | 0.01 | 0.01 | 86 | 1011.3 |
| 20260506162534 | 76 | 26 | 1.0 | 4.0 | 0.01 | 0.01 | 0.01 | 86 | 1011.3 |
| 20260506162034 | 75 | 54 | 1.0 | 4.0 | 0.01 | 0.01 | 0.01 | 87 | 1011.3 |
| 20260506161533 | 75 | 46 | 2.0 | 4.0 | 0.01 | 0.01 | 0.01 | 88 | 1011.3 |
| 20260506161034 | 75 | 64 | 2.0 | 4.0 | 0.01 | 0.01 | 0.01 | 88 | 1011.2 |
| 20260506160538 | 75 | 85 | 1.0 | 6.0 | 0.01 | 0.01 | 0.01 | 87 | 1011.0 |
| 20260506160534 | 75 | 51 | 2.0 | 6.0 | 0.01 | 0.01 | 0.01 | 88 | 1011.1 |
| 20260506155538 | 75 | 58 | 2.0 | 4.0 | 0.01 | 0.01 | 0.01 | 86 | 1011.1 |
| 20260506155534 | 75 | 59 | 1.0 | 4.0 | 0.01 | 0.01 | 0.01 | 87 | 1011.1 |
| 20260506154534 | 76 | 42 | 2.0 | 6.0 | 0.00 | 0.00 | 0.00 | 85 | 1011.0 |
| 20260506154031 | 76 | 69 | 1.0 | 6.0 | 0.00 | 0.00 | 0.00 | 84 | 1011.0 |
| 20260506153532 | 76 | 44 | 1.0 | 5.0 | 0.00 | 0.00 | 0.00 | 83 | 1010.9 |
| 20260506153032 | 77 | 50 | 1.0 | 4.0 | 0.00 | 0.00 | 0.00 | 83 | 1010.8 |
| 20260506152531 | 77 | 56 | 1.0 | 4.0 | 0.00 | 0.00 | 0.00 | 83 | 1010.8 |
| 20260506152032 | 77 | 54 | 1.0 | 2.0 | 0.00 | 0.00 | 0.00 | 83 | 1010.6 |
| 20260506151532 | 77 | 54 | 1.0 | 6.0 | 0.00 | 0.00 | 0.00 | 83 | 1010.6 |
| 20260506151032 | 77 | 65 | 1.0 | 6.0 | 0.00 | 0.00 | 0.00 | 82 | 1010.5 |
| 20260506150530 | 77 | 48 | 1.0 | 4.0 | 0.00 | 0.00 | 0.00 | 82 | 1010.5 |
| 20260506150028 | 77 | 27 | 1.0 | 4.0 | 0.00 | 0.00 | 0.00 | 83 | 1010.4 |
| 20260506145528 | 77 | 27 | 1.0 | 4.0 | 0.00 | 0.00 | 0.00 | 83 | 1010.4 |
| 20260506145029 | 76 | 119 | 1.0 | 2.0 | 0.00 | 0.00 | 0.00 | 83 | 1010.4 |
| 20260506144528 | 76 | 119 | 1.0 | 2.0 | 0.00 | 0.00 | 0.00 | 83 | 1010.4 |
| 20260506144027 | 76 | 126 | 0.0 | 1.0 | 0.00 | 0.00 | 0.00 | 83 | 1010.3 |
| 20260506143528 | 76 | 126 | 0.0 | 4.0 | 0.00 | 0.00 | 0.00 | 83 | 1010.3 |
| 20260506143028 | 76 | 126 | 0.0 | 4.0 | 0.00 | 0.00 | 0.00 | 84 | 1010.2 |
| 20260506142528 | 76 | 131 | 1.0 | 5.0 | 0.00 | 0.00 | 0.00 | 84 | 1010.1 |
| 20260506142032 | 76 | 121 | 1.0 | 5.0 | 0.00 | 0.00 | 0.00 | 84 | 1009.9 |
| 20260506142028 | 76 | 110 | 1.0 | 5.0 | 0.00 | 0.00 | 0.00 | 84 | 1009.9 |
| 20260506141028 | 76 | 261 | 0.0 | 1.0 | 0.00 | 0.00 | 0.00 | 85 | 1010.0 |
| 20260506140526 | 76 | 261 | 1.0 | 4.0 | 0.00 | 0.00 | 0.00 | 85 | 1009.9 |
| 20260506140026 | 76 | 126 | 1.0 | 4.0 | 0.00 | 0.00 | 0.00 | 85 | 1009.7 |
| 20260506135526 | 76 | 131 | 0.0 | 4.0 | 0.00 | 0.00 | 0.00 | 85 | 1009.6 |
| 20260506135025 | 75 | 132 | 0.0 | 4.0 | 0.00 | 0.00 | 0.00 | 86 | 1009.5 |
| 20260506134526 | 75 | 142 | 1.0 | 5.0 | 0.00 | 0.00 | 0.00 | 86 | 1009.4 |
| 20260506134025 | 75 | 114 | 1.0 | 5.0 | 0.00 | 0.00 | 0.00 | 86 | 1009.2 |
| 20260506133526 | 75 | 119 | 1.0 | 5.0 | 0.00 | 0.00 | 0.00 | 86 | 1009.2 |
| 20260506133026 | 75 | 121 | 1.0 | 5.0 | 0.00 | 0.00 | 0.00 | 86 | 1009.1 |
| 20260506132524 | 75 | 116 | 1.0 | 5.0 | 0.00 | 0.00 | 0.00 | 86 | 1009.1 |
| 20260506132028 | 75 | 108 | 1.0 | 4.0 | 0.00 | 0.00 | 0.00 | 86 | 1009.1 |
| 20260506132024 | 75 | 113 | 1.0 | 4.0 | 0.00 | 0.00 | 0.00 | 86 | 1009.2 |
| 20260506131024 | 75 | 105 | 1.0 | 7.0 | 0.00 | 0.00 | 0.00 | 87 | 1009.0 |
| 20260506130524 | 75 | 158 | 2.0 | 7.0 | 0.00 | 0.00 | 0.00 | 87 | 1008.9 |
| 20260506130024 | 75 | 127 | 2.0 | 7.0 | 0.00 | 0.00 | 0.00 | 87 | 1008.8 |
| 20260506125524 | 75 | 134 | 2.0 | 7.0 | 0.00 | 0.00 | 0.00 | 87 | 1008.8 |
| 20260506125024 | 74 | 111 | 2.0 | 6.0 | 0.00 | 0.00 | 0.00 | 87 | 1008.8 |
| 20260506124524 | 74 | 117 | 1.0 | 5.0 | 0.00 | 0.00 | 0.00 | 88 | 1008.9 |
| 20260506124024 | 74 | 127 | 1.0 | 6.0 | 0.00 | 0.00 | 0.00 | 88 | 1008.8 |
| 20260506123528 | 74 | 118 | 1.0 | 5.0 | 0.00 | 0.00 | 0.00 | 88 | 1008.9 |
| 20260506123524 | 74 | 120 | 1.0 | 6.0 | 0.00 | 0.00 | 0.00 | 88 | 1008.8 |
| 20260506122523 | 74 | 119 | 1.0 | 4.0 | 0.00 | 0.00 | 0.00 | 88 | 1008.8 |
| 20260506122023 | 74 | 134 | 1.0 | 4.0 | 0.00 | 0.00 | 0.00 | 88 | 1008.8 |
| 20260506121521 | 74 | 157 | 0.0 | 2.0 | 0.00 | 0.00 | 0.00 | 88 | 1008.9 |
| 20260506121019 | 74 | 118 | 1.0 | 5.0 | 0.00 | 0.00 | 0.00 | 88 | 1008.9 |
| 20260506120519 | 74 | 123 | 1.0 | 5.0 | 0.00 | 0.00 | 0.00 | 88 | 1008.9 |
| 20260506120019 | 74 | 125 | 1.0 | 5.0 | 0.00 | 0.00 | 0.00 | 88 | 1008.8 |
| 20260506115520 | 74 | 131 | 1.0 | 5.0 | 0.00 | 0.00 | 0.00 | 88 | 1008.8 |
| 20260506115017 | 74 | 118 | 1.0 | 5.0 | 0.00 | 0.00 | 0.00 | 88 | 1008.8 |
| 20260506114517 | 74 | 130 | 0.0 | 5.0 | 0.00 | 0.00 | 0.00 | 88 | 1008.8 |
| 20260506114018 | 74 | 108 | 0.0 | 2.0 | 0.00 | 0.00 | 0.00 | 88 | 1008.8 |
| 20260506113515 | 74 | 108 | 0.0 | 2.0 | 0.00 | 0.00 | 0.00 | 88 | 1008.8 |
| 20260506113017 | 74 | 108 | 0.0 | 2.0 | 0.00 | 0.00 | 0.00 | 87 | 1008.8 |
| 20260506112516 | 74 | 108 | 0.0 | 1.0 | 0.00 | 0.00 | 0.00 | 87 | 1008.8 |
| 20260506112015 | 74 | 108 | 0.0 | 1.0 | 0.00 | 0.00 | 0.00 | 87 | 1008.8 |
| 20260506111513 | 74 | 108 | 0.0 | 4.0 | 0.00 | 0.00 | 0.00 | 87 | 1008.8 |
| 20260506111012 | 74 | 108 | 0.0 | 4.0 | 0.00 | 0.00 | 0.00 | 87 | 1008.8 |
| 20260506110511 | 74 | 122 | 0.0 | 2.0 | 0.00 | 0.00 | 0.00 | 87 | 1008.8 |
| 20260506110009 | 74 | 123 | 0.0 | 1.0 | 0.00 | 0.00 | 0.00 | 87 | 1008.8 |
| 20260506105507 | 74 | 123 | 0.0 | 1.0 | 0.00 | 0.00 | 0.00 | 87 | 1008.8 |
| 20260506105008 | 74 | 123 | 0.0 | 1.0 | 0.00 | 0.00 | 0.00 | 87 | 1008.8 |
| 20260506104508 | 74 | 123 | 0.0 | 5.0 | 0.00 | 0.00 | 0.00 | 87 | 1008.7 |
| 20260506104004 | 75 | 123 | 0.0 | 5.0 | 0.00 | 0.00 | 0.00 | 87 | 1008.6 |
| 20260506103503 | 75 | 133 | 1.0 | 5.0 | 0.00 | 0.00 | 0.00 | 87 | 1008.4 |
| 20260506103006 | 75 | 134 | 1.0 | 5.0 | 0.00 | 0.00 | 0.00 | 87 | 1008.4 |
| 20260506103002 | 75 | 134 | 0.0 | 5.0 | 0.00 | 0.00 | 0.00 | 87 | 1008.4 |
| 20260506102002 | 75 | 126 | 1.0 | 5.0 | 0.00 | 0.00 | 0.00 | 87 | 1008.6 |
| 20260506101459 | 75 | 125 | 1.0 | 4.0 | 0.00 | 0.00 | 0.00 | 87 | 1008.6 |
| 20260506101000 | 75 | 126 | 1.0 | 7.0 | 0.00 | 0.00 | 0.00 | 87 | 1008.4 |
| 20260506100459 | 75 | 154 | 1.0 | 7.0 | 0.00 | 0.00 | 0.00 | 87 | 1008.4 |
| 20260506100455 | 75 | 159 | 1.0 | 5.0 | 0.00 | 0.00 | 0.00 | 87 | 1008.4 |
| 20260506095454 | 75 | 170 | 1.0 | 5.0 | 0.00 | 0.00 | 0.00 | 87 | 1008.4 |
| 20260506094955 | 75 | 192 | 1.0 | 6.0 | 0.00 | 0.00 | 0.00 | 87 | 1008.4 |
| 20260506094951 | 74 | 190 | 1.0 | 6.0 | 0.00 | 0.00 | 0.00 | 87 | 1008.4 |
| 20260506093949 | 74 | 126 | 2.0 | 6.0 | 0.00 | 0.00 | 0.00 | 87 | 1008.4 |
| 20260506093452 | 74 | 163 | 2.0 | 6.0 | 0.00 | 0.00 | 0.00 | 87 | 1008.4 |
| 20260506093448 | 74 | 155 | 2.0 | 6.0 | 0.00 | 0.00 | 0.00 | 87 | 1008.4 |
| 20260506093051 | 74 | 123 | 1.0 | 6.0 | 0.00 | 0.00 | 0.00 | 87 | 1008.4 |
| 20260506091945 | 74 | 132 | 1.0 | 5.0 | 0.00 | 0.00 | 0.00 | 87 | 1008.4 |
| 20260506091444 | 74 | 155 | 1.0 | 5.0 | 0.00 | 0.00 | 0.00 | 87 | 1008.4 |
| 20260506090941 | 74 | 133 | 1.0 | 4.0 | 0.00 | 0.00 | 0.00 | 87 | 1008.4 |
| 20260506090441 | 74 | 113 | 1.0 | 4.0 | 0.00 | 0.00 | 0.00 | 87 | 1008.6 |
| 20260506085940 | 75 | 163 | 1.0 | 5.0 | 0.00 | 0.00 | 0.00 | 87 | 1008.6 |
| 20260506085439 | 75 | 115 | 1.0 | 5.0 | 0.00 | 0.00 | 0.00 | 87 | 1008.4 |
| 20260506084940 | 75 | 110 | 2.0 | 7.0 | 0.00 | 0.00 | 0.00 | 86 | 1008.6 |
| 20260506084443 | 75 | 131 | 2.0 | 6.0 | 0.00 | 0.00 | 0.00 | 86 | 1008.7 |
| 20260506084439 | 75 | 163 | 2.0 | 7.0 | 0.00 | 0.00 | 0.00 | 86 | 1008.6 |
| 20260506083436 | 75 | 127 | 2.0 | 8.0 | 0.00 | 0.00 | 0.00 | 86 | 1008.7 |
| 20260506082931 | 75 | 140 | 3.0 | 8.0 | 0.00 | 0.00 | 0.00 | 86 | 1008.7 |
| 20260506082436 | 75 | 126 | 2.0 | 8.0 | 0.00 | 0.00 | 0.00 | 85 | 1008.7 |
| 20260506082432 | 75 | 121 | 2.0 | 7.0 | 0.00 | 0.00 | 0.00 | 86 | 1008.6 |
| 20260506081427 | 75 | 22 | 2.0 | 8.0 | 0.00 | 0.00 | 0.00 | 85 | 1008.7 |
| 20260506080928 | 75 | 89 | 2.0 | 6.0 | 0.00 | 0.00 | 0.00 | 85 | 1008.7 |
| 20260506080427 | 75 | 200 | 1.0 | 5.0 | 0.00 | 0.00 | 0.00 | 85 | 1008.7 |
| 20260506073418 | 75 | 134 | 2.0 | 8.0 | 0.00 | 0.00 | 0.00 | 85 | 1008.8 |
| 20260506072917 | 75 | 109 | 2.0 | 8.0 | 0.00 | 0.00 | 0.00 | 85 | 1008.9 |
| 20260506072415 | 75 | 126 | 2.0 | 9.0 | 0.00 | 0.00 | 0.00 | 85 | 1008.9 |
| 20260506071918 | 76 | 125 | 3.0 | 8.0 | 0.00 | 0.00 | 0.00 | 85 | 1008.9 |
| 20260506071914 | 75 | 114 | 3.0 | 9.0 | 0.00 | 0.00 | 0.00 | 85 | 1008.9 |
| 20260506070914 | 76 | 133 | 3.0 | 7.0 | 0.00 | 0.00 | 0.00 | 85 | 1009.0 |
| 20260506070413 | 76 | 184 | 3.0 | 10.0 | 0.00 | 0.00 | 0.00 | 85 | 1009.1 |
| 20260506062413 | 76 | 123 | 2.0 | 7.0 | 0.00 | 0.00 | 0.00 | 85 | 1009.0 |
| 20260506061914 | 76 | 106 | 2.0 | 8.0 | 0.00 | 0.00 | 0.00 | 85 | 1008.9 |
| 20260506061414 | 76 | 90 | 3.0 | 8.0 | 0.00 | 0.00 | 0.00 | 85 | 1009.0 |
| 20260506060913 | 76 | 122 | 4.0 | 9.0 | 0.00 | 0.00 | 0.00 | 85 | 1008.9 |
| 20260506060414 | 76 | 138 | 3.0 | 9.0 | 0.00 | 0.00 | 0.00 | 85 | 1008.9 |
| 20260506051414 | 76 | 59 | 2.0 | 7.0 | 0.00 | 0.00 | 0.00 | 85 | 1008.8 |
| 20260506050917 | 76 | 122 | 2.0 | 7.0 | 0.00 | 0.00 | 0.00 | 84 | 1008.9 |
| 20260506050913 | 76 | 76 | 2.0 | 7.0 | 0.00 | 0.00 | 0.00 | 84 | 1008.9 |
| 20260506044914 | 76 | 107 | 3.0 | 8.0 | 0.00 | 0.00 | 0.00 | 83 | 1008.7 |
| 20260506044417 | 77 | 128 | 3.0 | 11.0 | 0.00 | 0.00 | 0.00 | 83 | 1008.7 |
| 20260506044413 | 77 | 136 | 3.0 | 8.0 | 0.00 | 0.00 | 0.00 | 83 | 1008.7 |
| 20260506043414 | 77 | 147 | 3.0 | 11.0 | 0.00 | 0.00 | 0.00 | 83 | 1008.7 |
| 20260506042911 | 77 | 148 | 3.0 | 7.0 | 0.00 | 0.00 | 0.00 | 83 | 1008.7 |
| 20260506042412 | 77 | 118 | 3.0 | 9.0 | 0.00 | 0.00 | 0.00 | 82 | 1008.7 |
| 20260506041910 | 77 | 123 | 3.0 | 9.0 | 0.00 | 0.00 | 0.00 | 82 | 1008.7 |
| 20260506041413 | 78 | 150 | 3.0 | 8.0 | 0.00 | 0.00 | 0.00 | 81 | 1008.3 |
| 20260506041409 | 78 | 114 | 4.0 | 11.0 | 0.00 | 0.00 | 0.00 | 82 | 1008.4 |
| 20260506041013 | 78 | 31 | 3.0 | 11.0 | 0.00 | 0.00 | 0.00 | 81 | 1008.3 |